This is the latest recevied weather packets stored in our database for station/object W4UWO. If no packets are shown the sender has not sent any weather packets the latest 10 day(s).
| Time | Temp. | Humidity | Pressure | Rain* | Wind** | Luminosity | Snow |
|---|---|---|---|---|---|---|---|
| 1788387174 | 37.78° C | 37% | 1017.6 hPa | 0 mm | - | 241 W/m² | - |
| 1788386870 | 37.78° C | 36% | 1017.4 hPa | 0 mm | - | 258 W/m² | - |
| 1788386569 | 37.78° C | 37% | 1017.5 hPa | 0 mm | - | 274 W/m² | - |
| 1788386265 | 37.22° C | 36% | 1017.7 hPa | 0 mm | - | 294 W/m² | - |
| 1788385960 | 38.33° C | 35% | 1017.8 hPa | 0 mm | - | 311 W/m² | - |
| 1788385656 | 37.78° C | 36% | 1017.4 hPa | 0 mm | - | 328 W/m² | - |
| 1788385354 | 37.78° C | 37% | 1017.5 hPa | 0 mm | - | 353 W/m² | - |
| 1788385051 | 37.78° C | 38% | 1017.4 hPa | 0 mm | - | 367 W/m² | - |
| 1788384750 | 37.22° C | 38% | 1017.7 hPa | 0 mm | - | 388 W/m² | - |
| 1788384450 | 36.67° C | 39% | 1017.7 hPa | 0 mm | - | 412 W/m² | - |
| 1788384146 | 36.67° C | 39% | 1017.9 hPa | 0 mm | - | 417 W/m² | - |
| 1788383842 | 37.22° C | 39% | 1017.7 hPa | 0 mm | - | 441 W/m² | - |
| 1788383538 | 37.78° C | 36% | 1017.8 hPa | 0 mm | - | 447 W/m² | - |
| 1788383232 | 37.78° C | 36% | 1018 hPa | 0 mm | - | 480 W/m² | - |
| 1788382928 | 37.78° C | 36% | 1017.8 hPa | 0 mm | - | 497 W/m² | - |
| 1788382625 | 37.22° C | 37% | 1018 hPa | 0 mm | - | 512 W/m² | - |
| 1788382321 | 37.22° C | 36% | 1018 hPa | 0 mm | - | 546 W/m² | - |
| 1788382016 | 37.22° C | 37% | 1018 hPa | 0 mm | - | 572 W/m² | - |
| 1788381715 | 37.78° C | 35% | 1017.9 hPa | 0 mm | - | 576 W/m² | - |
| 1788381412 | 38.33° C | 35% | 1018.1 hPa | 0 mm | - | 591 W/m² | - |
| 1788381112 | 38.33° C | 36% | 1018.2 hPa | 0 mm | - | 601 W/m² | - |
| 1788380807 | 37.78° C | 35% | 1018.2 hPa | 0 mm | - | 604 W/m² | - |
| 1788380503 | 37.22° C | 37% | 1018.3 hPa | 0 mm | - | 613 W/m² | - |
| 1788380200 | 37.78° C | 37% | 1018.2 hPa | 0 mm | - | 636 W/m² | - |
| 1788379898 | 37.78° C | 37% | 1018.4 hPa | 0 mm | - | 639 W/m² | - |
* Rain latest hour (hover to see other rain measurements)
** Current wind speed in m/s (hover to see current wind gust speed)